Temp
62 62 61 60 60 60 61 60 59 59 60 61 61 61 61 61 60 61 61 61 61 61 61 61 61 61 61 61 61 61 62 62 61 60 60 61 61 61 61 61 61 61 60 60 60 60 60 61 61 61 60 59 58 57 56 56 56 55 56 57 57 58 58 59 59 59 58 58 59
62 62 61 58 58 59 60 60 59 59 60 61 61 61 61 61 60 60 60 61 61 61 61 60 60 61 61 61 61 61 62 62 61 61 60 61 61 61 61 61 61 60 60 60 60 60 60 60 60 60 59 58 58 57 56 56 56 55 56 57 58 58 58 59 59 59 58 58 58
62 62 61 61 60 60 60 60 60 60 60 61 61 61 61 60 60 60 60 61 61 61 61 60 60 61 61 60 61 61 61 62 61 61 60 61 61 62 61 61 61 60 60 60 59 59 59 59 59 58 58 58 57 56 56 56 55 55 56 58 58 58 58 60 59 58 58 58 58
61 61 61 61 61 60 60 60 60 60 60 60 60 60 60 60 60 60 60 61 61 61 60 60 60 60 60 60 60 60 61 60 61 61 60 60 61 61 61 61 61 61 60 60 59 59 58 58 58 58 58 58 57 57 56 56 55 56 57 59 59 59 59 60 59 58 58 58 58
61 61 61 61 61 61 60 60 60 60 60 60 60 60 59 60 60 60 60 60 60 60 60 60 60 60 60 60 60 60 60 60 59 59 60 60 60 60 61 61 61 61 61 60 59 58 57 57 57 57 57 57 57 57 57 56 56 57 59 60 60 60 60 60 59 59 59 58 58
60 60 61 61 61 60 60 61 60 60 60 60 59 59 59 59 59 59 59 59 60 60 60 59 58 58 59 59 59 59 59 59 59 59 59 59 59 59 60 60 60 60 61 60 59 58 57 56 56 56 56 56 57 57 57 56 57 59 61 61 61 60 59 60 60 59 59 58 58
60 60 60 60 60 60 60 60 60 60 60 60 59 59 59 59 59 59 59 59 59 59 58 57 58 58 58 59 59 58 58 58 59 59 59 59 59 59 59 59 59 59 59 59 58 57 56 56 56 55 55 54 55 56 56 56 58 60 61 61 60 59 59 60 59 59 58 58 57
60 60 60 60 60 60 60 60 60 60 60 59 59 59 59 59 59 59 58 58 58 58 58 58 58 59 59 59 58 58 58 58 58 58 58 58 58 58 58 58 58 58 58 58 57 57 56 56 56 55 55 55 55 55 56 57 59 60 61 60 59 59 59 61 61 60 58 58 57
59 60 60 60 59 59 59 59 59 59 59 59 59 59 59 59 58 58 58 58 58 58 58 58 58 58 59 59 58 58 58 57 57 57 57 58 58 57 57 57 57 56 56 56 56 56 56 56 56 55 55 55 55 55 56 58 59 60 60 59 58 58 59 60 60 59 58 58 56
59 59 59 59 59 59 59 59 59 58 58 58 58 58 57 56 57 58 58 58 57 58 58 58 58 58 58 58 58 58 58 58 57 57 57 57 57 57 57 56 56 56 56 56 56 56 56 56 55 55 55 55 55 56 57 58 59 60 59 58 58 59 59 59 58 58 57 57 56
58 59 59 58 58 58 58 58 58 58 58 58 58 57 57 56 57 58 58 58 58 58 58 58 58 58 58 58 58 58 58 58 57 57 57 56 57 57 57 57 56 56 56 56 56 56 56 55 55 55 55 55 55 56 57 58 59 59 58 58 59 59 59 58 58 58 57 57 56
58 58 58 58 58 58 58 58 57 57 57 57 57 57 57 58 58 58 58 58 58 58 58 59 59 59 58 58 58 58 57 58 57 57 56 56 57 57 57 57 57 56 56 56 56 56 56 55 55 55 55 55 55 56 57 57 58 58 58 58 59 59 59 58 58 58 58 57 57
58 58 58 58 58 58 58 57 57 57 57 57 57 57 57 58 57 57 58 58 58 58 58 59 59 59 58 58 58 58 58 57 57 57 56 56 57 57 57 57 57 57 56 56 56 56 56 56 55 55 55 55 56 56 57 57 57 57 57 58 59 59 59 59 58 58 58 57 57
58 58 58 58 58 58 57 57 57 57 57 57 57 57 57 57 57 57 57 58 58 58 58 58 58 58 58 58 58 58 58 57 57 57 57 56 57 57 57 57 57 57 57 56 56 56 56 56 56 56 56 56 56 57 57 57 57 57 58 59 59 59 59 59 59 58 57 57 57
58 58 58 57 57 57 57 57 57 57 57 57 57 57 57 57 57 57 57 58 58 58 58 57 57 57 57 58 58 58 58 57 57 57 57 56 57 57 57 57 57 57 57 57 57 57 57 56 56 56 56 56 57 57 57 57 57 58 59 60 60 60 60 59 59 59 58 57 58
58 57 57 57 57 57 57 57 57 56 56 56 57 57 57 57 57 57 57 57 57 57 57 57 56 56 57 57 57 57 57 57 57 57 56 56 57 57 57 57 57 57 57 57 57 57 57 57 57 57 57 57 57 57 58 58 58 59 60 60 60 60 60 60 59 59 59 58 58
57 57 57 57 57 57 57 56 56 56 56 56 57 57 57 57 57 56 56 56 57 57 57 56 56 56 56 55 56 57 57 57 57 56 56 56 56 57 57 57 57 57 57 57 57 57 57 58 58 58 58 58 58 58 59 59 60 60 60 60 60 60 61 60 60 59 59 57 57
57 57 57 57 57 57 57 57 57 56 56 57 57 57 57 57 57 56 56 56 57 57 57 56 56 56 56 56 56 56 56 56 56 56 56 56 56 57 57 57 57 57 58 58 58 58 58 58 59 59 59 59 59 60 61 62 61 61 61 61 61 61 61 60 59 59 58 56 55
57 57 57 57 57 57 57 56 56 57 57 57 57 57 57 57 57 57 57 57 57 57 57 56 56 56 56 56 56 55 55 56 56 56 56 56 56 56 57 57 57 58 58 58 58 59 59 60 60 60 60 60 60 61 62 62 62 61 61 61 61 60 60 59 58 56 55 54 52
57 57 57 57 57 57 57 56 57 57 57 57 58 58 58 58 58 57 57 57 56 57 57 56 56 56 56 56 56 56 55 56 56 56 56 56 56 56 57 57 57 58 58 59 60 61 62 62 63 62 61 60 60 60 61 60 60 60 60 59 59 58 57 56 55 54 52 50 49
57 57 58 58 57 57 57 57 57 58 58 58 58 58 58 58 58 57 57 56 56 56 56 56 56 56 56 56 56 56 55 55 56 56 56 56 56 57 57 58 58 59 60 61 62 63 63 64 63 62 61 60 59 59 59 59 59 59 59 58 57 56 55 53 52 50 48 46 45
58 58 58 58 58 57 57 58 58 58 58 57 57 57 58 57 57 57 57 57 56 56 56 56 56 56 56 56 56 55 55 55 56 56 56 56 57 58 59 59 60 61 62 63 64 64 64 63 62 61 60 59 59 58 58 59 59 59 59 58 55 53 51 49 48 46 44 43 42
58 58 58 58 58 57 56 57 58 58 57 57 57 57 57 57 57 57 57 57 56 56 56 56 56 56 56 56 56 56 56 55 56 56 56 57 58 60 61 62 62 63 63 64 64 64 63 62 61 61 60 60 58 57 57 57 58 58 57 55 53 50 47 45 44 43 42 41 40
58 58 58 58 57 57 57 57 57 57 57 57 57 57 57 57 57 57 57 57 57 56 56 56 56 56 56 56 56 56 56 56 56 56 57 58 60 61 63 63 63 63 64 63 61 60 60 60 60 60 60 58 56 56 56 55 56 55 55 53 49 46 43 42 41 40 39 39 39
58 58 57 57 57 57 57 57 57 57 57 57 57 57 57 57 57 57 57 57 57 57 56 56 56 56 56 56 56 56 56 56 56 57 58 59 61 62 63 63 63 63 62 60 55 53 53 54 57 58 57 56 55 54 54 52 52 51 50 48 45 43 41 40 39 39 38 38 37
58 57 57 57 57 57 57 57 57 57 57 57 57 57 57 57 57 57 57 57 56 56 56 56 56 55 55 56 56 56 56 56 57 58 59 60 62 63 63 63 63 62 61 57 52 50 49 50 50 51 53 55 54 52 51 49 49 48 47 45 43 42 40 39 38 38 38 37 36
58 57 57 57 57 57 57 57 57 57 57 57 57 57 57 57 57 57 57 56 56 56 56 56 56 54 54 56 56 56 56 56 57 59 60 62 62 63 63 63 63 61 58 53 48 46 46 47 46 46 48 52 51 49 48 47 46 45 45 43 42 40 39 39 38 38 37 37 36
57 57 57 57 57 57 57 57 57 57 57 57 57 57 57 57 57 57 56 56 56 56 56 56 56 56 56 56 56 56 56 57 59 61 62 63 63 63 63 64 62 54 47 42 43 43 44 44 44 44 45 46 47 47 45 45 44 43 42 41 40 39 38 38 37 37 37 36 36
57 57 57 57 57 57 57 57 57 57 57 57 57 57 57 57 57 57 56 56 56 56 56 56 57 57 57 57 56 56 57 58 60 62 62 62 62 61 59 55 47 43 41 40 41 42 42 43 43 43 43 44 45 45 44 43 41 40 40 39 38 38 37 37 37 37 36 36 35
57 57 57 57 57 57 57 57 57 57 57 57 57 57 57 57 57 57 56 56 56 56 56 58 58 58 58 57 57 57 57 58 60 61 61 61 59 53 46 42 43 42 41 40 41 42 42 42 41 41 41 41 41 41 40 40 38 38 37 37 37 36 36 36 36 36 35 35 35
57 57 57 57 57 57 57 57 57 57 57 57 57 57 57 57 57 56 56 56 56 56 57 58 59 58 58 57 57 56 57 57 58 58 57 55 48 44 42 41 41 41 40 41 41 41 41 40 40 39 39 39 38 38 38 37 36 35 35 35 34 34 34 34 34 34 34 34 34
57 57 57 57 57 57 57 57 57 57 57 57 57 57 57 57 57 57 56 56 56 56 57 58 59 59 58 58 57 57 58 57 57 56 53 48 43 41 40 39 40 39 39 40 40 40 39 39 38 38 37 37 36 36 36 35 34 33 33 33 33 32 32 33 32 33 33 33 33
57 57 56 56 57 57 57 57 57 57 57 57 57 58 58 57 57 57 56 56 55 55 55 54 54 53 52 51 52 51 51 50 49 47 45 42 40 39 38 38 38 38 38 39 39 38 38 38 37 36 36 35 35 34 34 33 33 32 31 31 31 31 31 31 31 31 31 31 31
56 56 56 56 56 57 57 57 57 57 57 57 57 58 58 58 57 55 53 50 50 49 49 48 47 46 46 46 46 45 44 43 43 43 42 40 39 37 37 37 37 38 38 38 38 37 37 37 36 36 35 34 34 33 33 32 31 31 30 30 30 30 30 30 30 30 30 30 30
56 56 56 56 56 57 57 57 57 56 56 56 57 56 56 54 51 49 47 46 45 45 45 45 44 44 44 43 43 42 41 40 40 39 39 38 37 36 36 35 36 37 37 37 37 37 36 36 36 35 34 33 33 32 31 31 30 29 29 29 29 29 29 29 29 29 29 29 29
56 56 56 56 56 56 56 56 56 56 56 56 55 53 50 48 46 46 45 44 44 44 43 43 43 42 42 41 41 40 40 39 38 38 37 37 36 35 35 34 35 36 36 36 36 36 36 36 35 35 34 33 32 31 31 30 29 29 28 28 28 28 28 28 28 28 28 28 28
56 56 56 56 56 56 56 56 56 56 55 55 52 49 46 45 45 45 44 44 43 42 41 41 40 40 40 40 40 39 39 39 38 37 37 37 36 35 34 34 34 34 35 36 36 36 36 35 35 34 33 32 31 31 30 30 29 28 28 27 27 27 27 27 27 27 27 27 28
56 56 56 55 55 55 55 55 55 55 54 52 49 46 45 44 43 43 42 42 41 40 39 39 38 38 38 38 37 37 37 37 37 36 36 36 35 34 34 33 33 34 34 35 36 35 35 35 35 34 33 31 31 30 30 29 28 28 27 27 27 27 27 27 27 27 27 27 28
56 56 56 55 55 55 55 55 55 54 52 48 45 44 43 43 42 41 41 40 40 39 38 37 37 36 36 36 36 36 35 35 35 35 34 34 34 34 33 32 33 33 34 35 35 35 35 35 34 34 33 31 31 30 29 29 28 27 27 27 26 27 27 27 27 27 28 28 29
56 56 56 55 55 55 55 55 54 51 48 45 43 42 42 41 40 40 39 39 38 38 37 36 36 36 36 35 35 34 34 34 34 34 34 34 34 34 33 32 32 33 33 34 35 35 35 34 34 34 33 31 31 30 29 28 27 26 26 26 26 26 26 26 27 27 27 27 29
57 57 56 56 56 55 55 54 51 47 45 43 42 41 40 40 39 39 38 38 37 36 36 35 35 35 35 34 34 33 33 33 33 34 34 33 34 34 33 32 32 32 33 34 34 35 34 34 34 33 32 31 30 29 29 28 27 25 25 25 25 25 25 25 25 26 26 26 27
MSLP
1002.41 1002.61 1002.81 1003.05 1003.25 1003.37 1003.53 1003.65 1003.81 1003.93 1004.05 1004.09 1004.13 1004.13 1004.17 1004.25 1004.41 1004.61 1004.77 1004.93 1005.09 1005.29 1005.53 1005.81 1005.97 1006.09 1006.25 1006.45 1006.57 1006.69 1006.89 1007.09 1007.49 1007.81 1008.13 1008.41 1008.73 1009.05 1009.41 1009.81 1010.09 1010.41 1010.69 1010.93 1011.13 1011.41 1011.69 1011.93 1012.13 1012.41 1012.69 1012.93 1013.13 1013.41 1013.81 1014.33 1014.77 1015.17 1015.53 1015.81 1015.89 1015.93 1015.97 1016.01 1016.01 1016.09 1016.29 1016.69 1016.69
1002.29 1002.41 1002.65 1002.89 1003.09 1003.25 1003.37 1003.49 1003.69 1003.85 1003.97 1004.09 1004.13 1004.13 1004.13 1004.13 1004.25 1004.45 1004.65 1004.77 1004.89 1005.09 1005.37 1005.61 1005.81 1006.01 1006.21 1006.41 1006.53 1006.69 1006.81 1007.01 1007.33 1007.69 1008.01 1008.25 1008.53 1008.81 1009.21 1009.61 1009.97 1010.29 1010.57 1010.85 1011.09 1011.37 1011.69 1011.93 1012.21 1012.49 1012.69 1012.81 1013.09 1013.41 1013.81 1014.25 1014.81 1015.25 1015.61 1015.77 1015.81 1015.81 1015.89 1015.93 1015.85 1015.97 1016.21 1016.49 1016.53
1002.25 1002.33 1002.49 1002.69 1002.89 1003.09 1003.21 1003.33 1003.53 1003.69 1003.85 1003.97 1004.09 1004.13 1004.09 1004.09 1004.13 1004.33 1004.53 1004.69 1004.77 1004.97 1005.25 1005.45 1005.69 1005.89 1006.09 1006.29 1006.45 1006.61 1006.77 1006.97 1007.21 1007.57 1007.97 1008.17 1008.33 1008.57 1008.97 1009.37 1009.77 1010.13 1010.45 1010.77 1011.09 1011.37 1011.65 1011.89 1012.13 1012.41 1012.57 1012.73 1012.97 1013.29 1013.69 1014.25 1014.89 1015.41 1015.69 1015.69 1015.69 1015.73 1015.77 1015.77 1015.73 1015.97 1016.29 1016.45 1016.49
1002.25 1002.29 1002.41 1002.49 1002.65 1002.81 1002.97 1003.09 1003.29 1003.49 1003.69 1003.85 1004.01 1004.09 1004.09 1004.09 1004.13 1004.25 1004.45 1004.61 1004.77 1004.97 1005.13 1005.25 1005.49 1005.73 1005.97 1006.21 1006.37 1006.53 1006.73 1006.93 1007.13 1007.53 1007.93 1008.09 1008.17 1008.41 1008.77 1009.21 1009.61 1009.97 1010.33 1010.61 1010.97 1011.37 1011.69 1011.89 1012.05 1012.25 1012.41 1012.65 1012.89 1013.13 1013.53 1014.21 1014.97 1015.53 1015.69 1015.57 1015.53 1015.57 1015.57 1015.57 1015.73 1016.09 1016.37 1016.41 1016.41
1002.21 1002.25 1002.29 1002.41 1002.49 1002.57 1002.73 1002.93 1003.09 1003.29 1003.49 1003.73 1003.97 1004.09 1004.09 1004.13 1004.17 1004.25 1004.41 1004.61 1004.73 1004.81 1004.97 1005.09 1005.29 1005.57 1005.89 1006.09 1006.29 1006.49 1006.69 1006.89 1007.17 1007.53 1007.81 1007.93 1008.05 1008.25 1008.65 1009.09 1009.49 1009.81 1010.13 1010.49 1010.85 1011.33 1011.69 1011.89 1012.01 1012.13 1012.33 1012.57 1012.81 1013.01 1013.37 1014.05 1014.93 1015.45 1015.57 1015.45 1015.37 1015.37 1015.37 1015.53 1015.89 1016.21 1016.29 1016.29 1016.33
1002.17 1002.25 1002.29 1002.37 1002.45 1002.53 1002.65 1002.77 1002.93 1003.09 1003.33 1003.57 1003.81 1003.97 1004.09 1004.13 1004.21 1004.29 1004.41 1004.53 1004.65 1004.73 1004.85 1005.05 1005.25 1005.53 1005.81 1006.05 1006.25 1006.41 1006.61 1006.85 1007.17 1007.49 1007.73 1007.89 1008.05 1008.29 1008.65 1009.09 1009.37 1009.69 1009.97 1010.33 1010.81 1011.29 1011.69 1011.89 1011.97 1012.09 1012.25 1012.53 1012.81 1013.01 1013.37 1013.97 1014.81 1015.25 1015.37 1015.29 1015.25 1015.21 1015.29 1015.69 1016.01 1016.17 1016.21 1016.25 1016.29
1002.13 1002.25 1002.29 1002.41 1002.49 1002.57 1002.65 1002.69 1002.81 1002.97 1003.17 1003.37 1003.57 1003.81 1003.97 1004.09 1004.17 1004.25 1004.37 1004.49 1004.61 1004.73 1004.85 1004.97 1005.13 1005.41 1005.73 1006.01 1006.25 1006.41 1006.61 1006.85 1007.13 1007.37 1007.65 1007.93 1008.13 1008.33 1008.57 1008.97 1009.29 1009.61 1009.85 1010.17 1010.65 1011.13 1011.53 1011.81 1011.85 1011.97 1012.25 1012.53 1012.81 1013.05 1013.37 1014.01 1014.73 1015.09 1015.09 1015.05 1015.05 1015.13 1015.41 1015.89 1015.97 1016.05 1016.09 1016.21 1016.25
1002.13 1002.21 1002.29 1002.41 1002.49 1002.57 1002.69 1002.73 1002.81 1002.89 1003.01 1003.17 1003.37 1003.61 1003.81 1003.97 1004.09 1004.25 1004.37 1004.53 1004.69 1004.81 1004.81 1004.89 1005.01 1005.29 1005.61 1005.93 1006.21 1006.45 1006.69 1006.89 1007.09 1007.29 1007.53 1007.81 1008.05 1008.25 1008.53 1008.85 1009.25 1009.57 1009.85 1010.13 1010.41 1010.85 1011.29 1011.65 1011.73 1011.81 1012.05 1012.41 1012.77 1013.05 1013.49 1014.13 1014.69 1014.93 1014.93 1014.89 1014.93 1015.25 1015.69 1015.85 1015.89 1015.93 1016.01 1016.09 1016.25
1002.13 1002.21 1002.29 1002.41 1002.53 1002.61 1002.69 1002.81 1002.85 1002.89 1002.93 1002.97 1003.21 1003.45 1003.69 1003.85 1004.09 1004.25 1004.41 1004.53 1004.69 1004.81 1004.93 1004.97 1005.09 1005.29 1005.57 1005.89 1006.21 1006.49 1006.73 1006.93 1007.09 1007.25 1007.49 1007.69 1007.97 1008.21 1008.45 1008.77 1009.13 1009.57 1009.97 1010.25 1010.41 1010.61 1010.97 1011.33 1011.53 1011.69 1011.85 1012.13 1012.53 1013.05 1013.61 1014.29 1014.69 1014.77 1014.77 1014.81 1015.09 1015.45 1015.73 1015.73 1015.73 1015.81 1015.93 1016.05 1016.17
1002.09 1002.21 1002.29 1002.41 1002.53 1002.69 1002.77 1002.89 1002.97 1002.97 1002.97 1003.01 1003.13 1003.33 1003.57 1003.81 1004.05 1004.25 1004.41 1004.61 1004.77 1004.93 1005.05 1005.09 1005.25 1005.41 1005.69 1005.97 1006.25 1006.53 1006.81 1006.97 1007.09 1007.25 1007.45 1007.69 1007.97 1008.21 1008.41 1008.65 1008.97 1009.45 1009.93 1010.25 1010.41 1010.57 1010.77 1011.09 1011.37 1011.53 1011.73 1012.05 1012.49 1013.09 1013.69 1014.21 1014.45 1014.53 1014.65 1014.81 1015.25 1015.57 1015.69 1015.61 1015.65 1015.73 1015.89 1016.01 1016.09
1002.09 1002.21 1002.29 1002.45 1002.53 1002.69 1002.81 1002.93 1003.01 1003.09 1003.13 1003.17 1003.25 1003.37 1003.61 1003.85 1004.09 1004.25 1004.45 1004.61 1004.81 1004.97 1005.09 1005.21 1005.37 1005.53 1005.77 1006.01 1006.29 1006.57 1006.81 1006.97 1007.13 1007.33 1007.49 1007.69 1007.97 1008.21 1008.41 1008.61 1008.89 1009.29 1009.73 1010.13 1010.37 1010.53 1010.69 1010.93 1011.13 1011.37 1011.69 1012.09 1012.53 1013.13 1013.69 1013.97 1014.17 1014.29 1014.57 1014.97 1015.37 1015.57 1015.61 1015.57 1015.61 1015.69 1015.81 1015.97 1016.09
1002.17 1002.25 1002.37 1002.45 1002.57 1002.69 1002.81 1002.97 1003.09 1003.21 1003.29 1003.37 1003.49 1003.61 1003.77 1003.97 1004.17 1004.33 1004.53 1004.69 1004.85 1005.01 1005.13 1005.25 1005.41 1005.57 1005.77 1006.05 1006.33 1006.61 1006.81 1006.97 1007.17 1007.37 1007.57 1007.77 1007.97 1008.17 1008.41 1008.61 1008.85 1009.25 1009.65 1009.97 1010.25 1010.41 1010.57 1010.81 1011.05 1011.33 1011.65 1012.09 1012.57 1013.09 1013.49 1013.81 1014.05 1014.37 1014.73 1015.13 1015.37 1015.49 1015.49 1015.49 1015.57 1015.69 1015.77 1015.89 1016.09
1002.25 1002.37 1002.45 1002.53 1002.65 1002.77 1002.89 1003.05 1003.17 1003.29 1003.45 1003.53 1003.69 1003.81 1003.97 1004.09 1004.25 1004.41 1004.57 1004.77 1004.93 1005.09 1005.25 1005.37 1005.53 1005.65 1005.81 1006.05 1006.33 1006.61 1006.81 1006.97 1007.17 1007.37 1007.61 1007.81 1007.97 1008.13 1008.37 1008.61 1008.93 1009.29 1009.69 1010.01 1010.21 1010.33 1010.49 1010.69 1010.97 1011.29 1011.65 1012.09 1012.53 1012.97 1013.37 1013.77 1014.09 1014.53 1014.93 1015.25 1015.37 1015.37 1015.37 1015.45 1015.57 1015.69 1015.77 1015.89 1015.97
1002.29 1002.41 1002.53 1002.61 1002.69 1002.81 1002.97 1003.13 1003.29 1003.45 1003.57 1003.69 1003.81 1003.97 1004.09 1004.25 1004.41 1004.53 1004.65 1004.81 1004.97 1005.13 1005.33 1005.53 1005.65 1005.77 1005.89 1006.09 1006.37 1006.57 1006.77 1006.97 1007.17 1007.37 1007.57 1007.81 1007.97 1008.13 1008.37 1008.69 1009.01 1009.37 1009.73 1010.01 1010.17 1010.29 1010.45 1010.69 1011.01 1011.37 1011.77 1012.21 1012.61 1013.05 1013.49 1013.89 1014.25 1014.69 1014.97 1015.17 1015.25 1015.29 1015.37 1015.45 1015.53 1015.69 1015.77 1015.85 1015.85
1002.41 1002.53 1002.61 1002.69 1002.81 1002.93 1003.09 1003.25 1003.37 1003.53 1003.69 1003.81 1003.97 1004.09 1004.25 1004.37 1004.53 1004.61 1004.73 1004.89 1005.05 1005.21 1005.37 1005.61 1005.81 1005.97 1006.09 1006.17 1006.37 1006.53 1006.77 1006.97 1007.17 1007.37 1007.57 1007.81 1008.01 1008.21 1008.41 1008.77 1009.09 1009.41 1009.73 1010.01 1010.25 1010.41 1010.53 1010.81 1011.13 1011.57 1011.97 1012.41 1012.81 1013.25 1013.69 1014.09 1014.41 1014.73 1014.93 1015.05 1015.09 1015.21 1015.33 1015.41 1015.53 1015.57 1015.61 1015.65 1015.65
1002.49 1002.61 1002.69 1002.81 1002.89 1003.01 1003.17 1003.33 1003.49 1003.65 1003.77 1003.89 1004.05 1004.17 1004.33 1004.49 1004.61 1004.69 1004.81 1004.97 1005.13 1005.29 1005.49 1005.69 1005.85 1006.05 1006.25 1006.37 1006.49 1006.65 1006.81 1006.97 1007.17 1007.33 1007.53 1007.77 1007.97 1008.25 1008.53 1008.81 1009.09 1009.37 1009.69 1010.01 1010.29 1010.53 1010.77 1011.05 1011.37 1011.77 1012.21 1012.61 1012.97 1013.37 1013.77 1014.13 1014.45 1014.69 1014.85 1014.97 1015.09 1015.21 1015.25 1015.29 1015.29 1015.33 1015.33 1015.37 1015.37
1002.57 1002.69 1002.81 1002.89 1002.97 1003.09 1003.25 1003.41 1003.57 1003.73 1003.85 1003.97 1004.09 1004.25 1004.41 1004.53 1004.69 1004.81 1004.93 1005.05 1005.21 1005.37 1005.53 1005.73 1005.89 1006.09 1006.29 1006.49 1006.69 1006.81 1006.97 1007.09 1007.25 1007.37 1007.53 1007.69 1007.97 1008.25 1008.53 1008.81 1009.09 1009.37 1009.69 1010.05 1010.37 1010.69 1010.97 1011.29 1011.61 1011.97 1012.37 1012.73 1013.09 1013.49 1013.81 1014.09 1014.33 1014.53 1014.73 1014.89 1015.01 1015.09 1015.09 1015.01 1014.97 1015.01 1015.09 1015.21 1015.33
1002.69 1002.77 1002.85 1002.97 1003.09 1003.25 1003.37 1003.53 1003.65 1003.81 1003.89 1004.01 1004.13 1004.29 1004.45 1004.61 1004.77 1004.89 1005.05 1005.17 1005.25 1005.41 1005.61 1005.81 1006.01 1006.17 1006.37 1006.57 1006.81 1006.97 1007.13 1007.25 1007.33 1007.45 1007.57 1007.73 1007.97 1008.25 1008.53 1008.81 1009.09 1009.41 1009.77 1010.09 1010.37 1010.69 1011.05 1011.37 1011.77 1012.13 1012.53 1012.89 1013.25 1013.53 1013.73 1013.93 1014.13 1014.41 1014.65 1014.81 1014.89 1014.85 1014.81 1014.81 1014.81 1014.93 1015.09 1015.29 1015.53
1002.73 1002.85 1002.97 1003.09 1003.21 1003.37 1003.49 1003.61 1003.73 1003.81 1003.97 1004.09 1004.21 1004.37 1004.53 1004.69 1004.81 1004.97 1005.13 1005.25 1005.37 1005.53 1005.69 1005.89 1006.09 1006.25 1006.41 1006.65 1006.85 1007.09 1007.25 1007.37 1007.49 1007.65 1007.81 1007.97 1008.13 1008.37 1008.61 1008.93 1009.25 1009.53 1009.81 1010.13 1010.41 1010.69 1011.05 1011.37 1011.77 1012.17 1012.57 1013.01 1013.33 1013.53 1013.69 1013.85 1014.17 1014.45 1014.65 1014.73 1014.81 1014.81 1014.81 1014.89 1014.97 1015.09 1015.29 1015.53 1015.73
1002.81 1002.97 1003.05 1003.13 1003.29 1003.45 1003.61 1003.69 1003.81 1003.93 1004.05 1004.13 1004.25 1004.41 1004.61 1004.73 1004.89 1005.05 1005.21 1005.37 1005.53 1005.65 1005.81 1005.97 1006.13 1006.37 1006.57 1006.77 1006.97 1007.17 1007.37 1007.49 1007.69 1007.81 1008.01 1008.21 1008.37 1008.57 1008.81 1009.09 1009.41 1009.69 1009.97 1010.25 1010.49 1010.73 1011.01 1011.33 1011.69 1012.09 1012.57 1013.01 1013.33 1013.53 1013.81 1014.09 1014.41 1014.61 1014.73 1014.81 1014.81 1014.89 1014.97 1015.09 1015.21 1015.37 1015.53 1015.77 1015.97
1002.85 1003.01 1003.13 1003.25 1003.37 1003.53 1003.69 1003.81 1003.89 1004.01 1004.13 1004.25 1004.41 1004.53 1004.69 1004.85 1005.01 1005.13 1005.29 1005.49 1005.65 1005.77 1005.93 1006.05 1006.21 1006.41 1006.61 1006.81 1007.05 1007.25 1007.45 1007.61 1007.81 1008.01 1008.25 1008.45 1008.69 1008.85 1009.05 1009.25 1009.57 1009.85 1010.09 1010.29 1010.53 1010.73 1010.97 1011.33 1011.69 1012.13 1012.61 1013.05 1013.37 1013.69 1013.97 1014.25 1014.53 1014.69 1014.73 1014.81 1014.81 1014.97 1015.13 1015.29 1015.49 1015.69 1015.93 1016.13 1016.37
1002.97 1003.09 1003.25 1003.37 1003.49 1003.61 1003.73 1003.89 1004.01 1004.13 1004.25 1004.41 1004.53 1004.65 1004.77 1004.97 1005.09 1005.25 1005.41 1005.61 1005.73 1005.89 1006.05 1006.17 1006.29 1006.45 1006.65 1006.89 1007.13 1007.33 1007.53 1007.77 1007.93 1008.17 1008.45 1008.69 1008.89 1009.01 1009.17 1009.37 1009.69 1009.97 1010.17 1010.37 1010.53 1010.81 1011.13 1011.53 1011.93 1012.33 1012.73 1013.13 1013.45 1013.77 1014.01 1014.25 1014.41 1014.53 1014.57 1014.69 1014.85 1015.13 1015.41 1015.57 1015.81 1016.05 1016.29 1016.53 1016.69
1003.01 1003.13 1003.29 1003.41 1003.61 1003.73 1003.81 1003.97 1004.09 1004.25 1004.37 1004.49 1004.61 1004.77 1004.89 1005.05 1005.25 1005.37 1005.53 1005.69 1005.85 1006.01 1006.17 1006.29 1006.45 1006.57 1006.77 1006.97 1007.21 1007.41 1007.65 1007.85 1008.09 1008.33 1008.61 1008.85 1008.97 1009.09 1009.21 1009.37 1009.69 1009.97 1010.13 1010.37 1010.61 1010.93 1011.37 1011.77 1012.13 1012.53 1012.85 1013.17 1013.49 1013.73 1013.97 1014.09 1014.17 1014.25 1014.41 1014.61 1015.05 1015.45 1015.77 1015.97 1016.21 1016.41 1016.65 1016.89 1017.09
1003.09 1003.21 1003.37 1003.53 1003.69 1003.81 1003.93 1004.05 1004.21 1004.33 1004.45 1004.57 1004.73 1004.85 1005.01 1005.17 1005.33 1005.53 1005.69 1005.81 1005.97 1006.13 1006.25 1006.45 1006.61 1006.77 1006.97 1007.13 1007.37 1007.53 1007.73 1007.97 1008.25 1008.53 1008.77 1008.93 1009.01 1009.09 1009.17 1009.33 1009.69 1010.01 1010.21 1010.33 1010.73 1011.09 1011.49 1011.85 1012.25 1012.57 1012.85 1013.13 1013.37 1013.57 1013.73 1013.85 1013.97 1014.09 1014.33 1014.69 1015.25 1015.73 1016.09 1016.33 1016.57 1016.81 1017.01 1017.25 1017.45
1003.13 1003.29 1003.45 1003.57 1003.77 1003.89 1003.97 1004.09 1004.25 1004.41 1004.53 1004.65 1004.81 1004.97 1005.09 1005.25 1005.45 1005.65 1005.81 1005.97 1006.13 1006.29 1006.45 1006.61 1006.77 1006.97 1007.17 1007.37 1007.57 1007.73 1007.93 1008.09 1008.37 1008.65 1008.85 1008.97 1009.05 1009.17 1009.37 1009.65 1009.97 1010.25 1010.45 1010.65 1010.97 1011.33 1011.65 1011.97 1012.25 1012.53 1012.81 1013.09 1013.25 1013.45 1013.65 1013.81 1013.97 1014.17 1014.49 1014.97 1015.45 1015.89 1016.29 1016.65 1016.89 1017.13 1017.37 1017.61 1017.81
1003.21 1003.37 1003.53 1003.65 1003.81 1003.97 1004.09 1004.17 1004.33 1004.45 1004.61 1004.73 1004.89 1005.05 1005.21 1005.37 1005.53 1005.69 1005.89 1006.09 1006.25 1006.41 1006.57 1006.73 1006.93 1007.13 1007.37 1007.57 1007.81 1008.01 1008.21 1008.37 1008.57 1008.81 1008.93 1008.97 1009.13 1009.33 1009.57 1009.89 1010.21 1010.41 1010.65 1010.89 1011.21 1011.53 1011.81 1012.09 1012.33 1012.53 1012.73 1012.93 1013.25 1013.57 1013.85 1014.09 1014.21 1014.41 1014.73 1015.21 1015.61 1016.01 1016.37 1016.77 1017.17 1017.53 1017.77 1018.01 1018.25
1003.25 1003.41 1003.57 1003.73 1003.81 1003.97 1004.09 1004.25 1004.41 1004.53 1004.69 1004.81 1004.97 1005.13 1005.29 1005.45 1005.61 1005.81 1005.97 1006.17 1006.33 1006.53 1006.69 1006.89 1007.09 1007.37 1007.57 1007.77 1008.01 1008.25 1008.45 1008.69 1008.81 1008.97 1009.05 1009.09 1009.21 1009.41 1009.77 1010.05 1010.33 1010.53 1010.77 1011.09 1011.41 1011.69 1011.97 1012.17 1012.41 1012.53 1012.69 1012.93 1013.29 1013.69 1013.97 1014.25 1014.53 1014.81 1015.13 1015.53 1015.93 1016.29 1016.65 1017.05 1017.41 1017.77 1018.09 1018.41 1018.57
1003.33 1003.49 1003.65 1003.81 1003.93 1004.05 1004.17 1004.33 1004.45 1004.61 1004.73 1004.89 1005.05 1005.21 1005.37 1005.53 1005.73 1005.89 1006.05 1006.25 1006.45 1006.69 1006.89 1007.09 1007.33 1007.53 1007.77 1007.97 1008.17 1008.41 1008.65 1008.85 1008.97 1009.01 1009.05 1009.13 1009.29 1009.53 1009.81 1010.05 1010.41 1010.85 1011.29 1011.53 1011.69 1011.81 1012.05 1012.25 1012.45 1012.57 1012.77 1013.05 1013.37 1013.77 1014.09 1014.49 1014.81 1015.21 1015.61 1016.01 1016.41 1016.73 1017.01 1017.33 1017.69 1017.97 1018.29 1018.53 1018.77
1003.37 1003.53 1003.69 1003.85 1003.97 1004.09 1004.25 1004.41 1004.49 1004.65 1004.81 1004.97 1005.09 1005.25 1005.45 1005.65 1005.81 1005.97 1006.17 1006.37 1006.53 1006.81 1007.01 1007.25 1007.41 1007.65 1007.85 1008.09 1008.33 1008.53 1008.77 1008.93 1008.97 1008.97 1009.05 1009.25 1009.45 1009.69 1009.97 1010.49 1011.09 1011.37 1011.53 1011.69 1011.81 1012.01 1012.25 1012.45 1012.61 1012.73 1012.85 1013.09 1013.53 1013.97 1014.45 1014.89 1015.29 1015.73 1016.13 1016.49 1016.81 1017.13 1017.41 1017.69 1017.97 1018.25 1018.53 1018.77 1018.97
1003.41 1003.57 1003.69 1003.89 1004.01 1004.17 1004.29 1004.45 1004.53 1004.69 1004.89 1005.05 1005.21 1005.37 1005.57 1005.73 1005.93 1006.09 1006.29 1006.45 1006.65 1006.85 1007.05 1007.25 1007.45 1007.69 1007.97 1008.21 1008.41 1008.69 1008.85 1008.97 1008.93 1008.97 1009.09 1009.33 1009.69 1010.33 1010.97 1011.33 1011.49 1011.69 1011.81 1011.93 1012.09 1012.29 1012.53 1012.73 1012.89 1013.05 1013.17 1013.37 1013.81 1014.33 1014.85 1015.33 1015.73 1016.13 1016.57 1016.97 1017.25 1017.53 1017.81 1018.01 1018.29 1018.53 1018.73 1018.93 1019.09
1003.41 1003.61 1003.77 1003.93 1004.09 1004.25 1004.41 1004.53 1004.69 1004.81 1004.97 1005.13 1005.33 1005.49 1005.69 1005.85 1006.01 1006.21 1006.41 1006.53 1006.77 1006.97 1007.09 1007.25 1007.45 1007.73 1008.05 1008.29 1008.53 1008.81 1008.97 1009.05 1009.01 1009.01 1009.17 1009.61 1010.41 1011.05 1011.41 1011.69 1012.01 1012.25 1012.37 1012.29 1012.41 1012.57 1012.81 1013.01 1013.21 1013.37 1013.53 1013.69 1014.09 1014.65 1015.17 1015.69 1016.13 1016.57 1017.01 1017.41 1017.69 1017.97 1018.17 1018.41 1018.65 1018.81 1018.97 1019.09 1019.25
1003.45 1003.65 1003.81 1003.97 1004.13 1004.29 1004.49 1004.65 1004.77 1004.93 1005.09 1005.25 1005.45 1005.65 1005.81 1005.97 1006.09 1006.29 1006.49 1006.69 1006.93 1007.13 1007.29 1007.41 1007.61 1007.85 1008.17 1008.41 1008.69 1008.85 1009.01 1009.09 1009.09 1009.25 1009.61 1010.25 1010.97 1011.49 1011.93 1012.37 1012.77 1012.89 1012.85 1012.77 1012.77 1012.89 1013.09 1013.25 1013.41 1013.57 1013.81 1014.05 1014.49 1014.97 1015.53 1016.01 1016.53 1017.05 1017.49 1017.81 1018.09 1018.33 1018.53 1018.77 1018.97 1019.13 1019.25 1019.37 1019.53
1003.49 1003.69 1003.85 1004.01 1004.17 1004.37 1004.53 1004.69 1004.89 1005.05 1005.25 1005.37 1005.57 1005.73 1005.93 1006.09 1006.25 1006.49 1006.69 1006.93 1007.13 1007.37 1007.57 1007.77 1007.97 1008.25 1008.49 1008.69 1008.89 1009.09 1009.33 1009.49 1009.65 1009.97 1010.41 1010.93 1011.37 1011.93 1012.53 1013.05 1013.29 1013.45 1013.41 1013.25 1013.17 1013.17 1013.29 1013.45 1013.61 1013.81 1014.05 1014.33 1014.85 1015.41 1015.97 1016.41 1016.89 1017.41 1017.89 1018.25 1018.53 1018.81 1018.97 1019.13 1019.29 1019.49 1019.61 1019.69 1019.89
1003.49 1003.69 1003.89 1004.05 1004.25 1004.41 1004.61 1004.81 1004.97 1005.17 1005.37 1005.53 1005.73 1005.93 1006.09 1006.29 1006.49 1006.77 1007.05 1007.33 1007.57 1007.81 1008.05 1008.25 1008.49 1008.69 1008.85 1009.05 1009.25 1009.57 1009.85 1010.09 1010.37 1010.61 1010.97 1011.33 1011.81 1012.41 1012.93 1013.37 1013.73 1013.93 1013.89 1013.69 1013.53 1013.49 1013.53 1013.65 1013.81 1014.05 1014.33 1014.69 1015.33 1015.93 1016.41 1016.81 1017.29 1017.81 1018.25 1018.65 1018.97 1019.17 1019.37 1019.53 1019.69 1019.81 1019.97 1020.09 1020.25
1003.53 1003.69 1003.89 1004.09 1004.29 1004.49 1004.69 1004.85 1005.09 1005.29 1005.53 1005.73 1005.97 1006.21 1006.41 1006.69 1006.93 1007.21 1007.49 1007.73 1008.01 1008.29 1008.57 1008.81 1008.93 1009.09 1009.33 1009.57 1009.81 1010.13 1010.53 1010.77 1011.05 1011.33 1011.61 1011.89 1012.25 1012.69 1013.21 1013.73 1014.09 1014.29 1014.25 1014.09 1013.93 1013.81 1013.81 1013.89 1014.09 1014.25 1014.61 1015.09 1015.81 1016.37 1016.81 1017.25 1017.77 1018.25 1018.69 1018.97 1019.29 1019.53 1019.77 1019.93 1020.09 1020.25 1020.41 1020.53 1020.65
1003.57 1003.77 1003.97 1004.17 1004.37 1004.53 1004.77 1004.97 1005.21 1005.45 1005.69 1005.97 1006.29 1006.65 1006.97 1007.25 1007.41 1007.65 1007.81 1008.01 1008.29 1008.65 1008.97 1009.17 1009.29 1009.53 1009.93 1010.29 1010.53 1010.81 1011.01 1011.25 1011.53 1011.85 1012.09 1012.29 1012.57 1013.05 1013.57 1014.09 1014.41 1014.57 1014.57 1014.49 1014.37 1014.29 1014.25 1014.33 1014.41 1014.57 1014.89 1015.41 1016.13 1016.73 1017.21 1017.65 1018.21 1018.69 1019.01 1019.29 1019.65 1019.97 1020.17 1020.33 1020.53 1020.69 1020.81 1020.97 1021.01
1003.69 1003.85 1004.05 1004.25 1004.45 1004.69 1004.85 1005.09 1005.33 1005.65 1005.97 1006.29 1006.69 1007.09 1007.45 1007.69 1007.85 1008.01 1008.09 1008.25 1008.57 1009.01 1009.41 1009.69 1009.97 1010.29 1010.61 1010.81 1011.09 1011.29 1011.53 1011.69 1011.93 1012.25 1012.53 1012.69 1012.89 1013.33 1013.85 1014.33 1014.69 1014.85 1014.93 1014.89 1014.81 1014.81 1014.81 1014.85 1014.85 1014.93 1015.17 1015.69 1016.41 1016.97 1017.49 1018.01 1018.53 1018.97 1019.37 1019.65 1020.01 1020.33 1020.53 1020.73 1020.97 1021.13 1021.25 1021.37 1021.45
1003.77 1003.97 1004.13 1004.37 1004.57 1004.77 1004.97 1005.21 1005.49 1005.81 1006.25 1006.69 1007.13 1007.53 1007.81 1008.05 1008.25 1008.45 1008.57 1008.69 1008.97 1009.49 1009.97 1010.29 1010.57 1010.85 1011.13 1011.37 1011.57 1011.81 1012.05 1012.17 1012.41 1012.69 1012.97 1013.17 1013.37 1013.73 1014.13 1014.53 1014.89 1015.17 1015.29 1015.25 1015.25 1015.25 1015.29 1015.37 1015.37 1015.37 1015.53 1015.97 1016.53 1017.09 1017.65 1018.21 1018.77 1019.21 1019.57 1019.97 1020.37 1020.69 1020.89 1021.09 1021.29 1021.49 1021.69 1021.81 1021.85
1003.81 1004.05 1004.25 1004.45 1004.69 1004.93 1005.13 1005.37 1005.69 1006.09 1006.61 1007.17 1007.61 1007.89 1008.13 1008.45 1008.73 1008.97 1009.13 1009.25 1009.49 1009.85 1010.25 1010.69 1011.05 1011.41 1011.69 1011.93 1012.09 1012.37 1012.65 1012.89 1013.09 1013.25 1013.49 1013.77 1014.01 1014.25 1014.45 1014.77 1015.13 1015.45 1015.61 1015.65 1015.65 1015.65 1015.69 1015.81 1015.85 1015.89 1015.97 1016.25 1016.69 1017.25 1017.77 1018.33 1018.89 1019.37 1019.81 1020.21 1020.57 1020.93 1021.21 1021.37 1021.57 1021.81 1021.97 1022.13 1022.21
1003.89 1004.13 1004.37 1004.61 1004.81 1005.09 1005.29 1005.57 1005.97 1006.49 1007.09 1007.53 1007.97 1008.25 1008.61 1008.93 1009.25 1009.45 1009.61 1009.81 1010.09 1010.41 1010.73 1011.13 1011.61 1012.01 1012.25 1012.41 1012.53 1012.73 1013.09 1013.37 1013.65 1013.85 1014.05 1014.29 1014.53 1014.69 1014.85 1015.05 1015.37 1015.69 1015.93 1016.01 1016.01 1016.05 1016.09 1016.21 1016.25 1016.37 1016.45 1016.65 1016.97 1017.45 1017.97 1018.45 1018.97 1019.53 1019.97 1020.41 1020.73 1021.09 1021.45 1021.69 1021.89 1022.05 1022.25 1022.41 1022.53
1003.97 1004.21 1004.45 1004.69 1004.97 1005.25 1005.53 1005.93 1006.45 1007.01 1007.53 1007.93 1008.33 1008.69 1009.01 1009.29 1009.53 1009.77 1010.01 1010.29 1010.61 1010.93 1011.29 1011.73 1012.17 1012.41 1012.57 1012.69 1012.89 1013.13 1013.49 1013.81 1014.13 1014.41 1014.53 1014.77 1014.97 1015.13 1015.29 1015.45 1015.69 1015.97 1016.21 1016.33 1016.41 1016.41 1016.53 1016.61 1016.69 1016.77 1016.89 1017.09 1017.37 1017.73 1018.09 1018.57 1019.09 1019.65 1020.13 1020.57 1020.89 1021.21 1021.57 1021.93 1022.13 1022.33 1022.49 1022.69 1022.81
Wind_Speed
8 8 7 7 6 6 5 5 4 4 4 4 5 6 6 7 7 6 6 6 7 7 7 6 6 7 8 9 10 11 12 13 14 14 14 16 17 16 15 13 12 12 12 12 12 12 12 12 11 10 9 8 9 9 9 8 8 7 6 7 6 6 6 8 8 8 8 8 7
8 9 8 7 7 6 6 5 5 5 5 4 4 5 6 6 7 7 6 7 7 7 6 6 7 8 9 9 10 11 12 13 15 14 14 16 19 19 18 15 14 14 14 13 13 11 11 12 11 10 9 8 9 10 9 9 8 6 7 8 6 6 6 7 8 8 7 8 7
7 8 8 9 8 7 7 6 6 7 7 6 4 4 5 5 6 6 6 7 7 7 6 6 7 9 10 10 10 10 12 13 15 15 15 15 18 20 19 17 16 15 15 14 12 10 10 11 11 10 9 9 10 11 11 10 8 7 8 9 6 5 5 6 6 6 6 6 6
6 7 8 9 11 10 9 7 8 8 8 6 5 4 4 4 5 5 6 6 7 7 7 7 8 9 10 10 10 11 12 13 17 17 16 13 17 20 20 18 18 17 16 15 14 11 9 10 9 9 9 11 12 12 12 11 9 8 8 8 6 6 6 6 5 5 5 6 6
6 6 7 8 10 11 10 9 9 9 8 6 5 4 4 4 4 5 5 6 7 7 8 9 9 9 10 10 11 11 12 14 17 16 14 13 16 18 19 19 19 18 17 18 16 13 10 10 8 8 9 11 11 11 12 13 11 10 9 6 6 6 6 5 5 5 6 6 5
6 6 6 6 8 9 9 9 10 10 9 7 7 6 5 4 4 5 6 7 7 8 9 10 10 10 10 11 11 11 11 13 14 14 13 14 14 16 17 18 18 18 17 18 17 15 12 10 8 8 9 9 9 11 13 14 11 10 9 7 6 5 5 5 6 6 6 7 7
6 6 6 6 7 7 7 8 10 10 10 9 10 9 7 6 6 6 7 6 7 8 8 9 10 11 11 11 11 10 10 10 12 14 15 14 14 15 16 16 16 15 16 18 18 16 14 10 8 8 9 8 8 10 12 12 10 10 10 8 6 5 5 8 7 6 7 9 9
6 7 7 6 6 6 6 7 9 10 10 10 11 11 10 9 8 8 7 6 6 6 7 7 11 12 12 12 11 10 10 11 12 13 15 15 16 16 16 16 14 14 14 15 17 17 15 11 9 9 9 9 8 9 11 12 12 11 10 9 6 6 7 9 8 7 7 9 10
6 6 7 7 6 6 6 6 8 9 10 11 12 12 11 10 10 9 8 7 6 6 6 7 10 12 12 12 12 11 11 10 11 12 14 15 16 16 16 16 15 14 13 13 15 17 16 12 9 9 10 9 9 10 11 12 13 13 10 8 7 8 9 10 8 8 8 9 10
6 7 7 7 7 7 6 6 6 7 8 9 11 11 11 10 9 9 8 7 6 7 7 8 10 11 12 12 12 11 11 10 11 12 13 14 16 16 16 15 16 15 13 12 13 14 14 12 11 11 11 11 12 12 12 12 13 12 10 7 9 11 12 10 8 8 8 8 9
7 7 8 8 8 8 7 7 6 6 6 7 9 9 9 9 9 8 8 7 8 8 9 10 11 12 12 11 11 11 11 10 11 12 13 14 15 16 16 15 16 16 14 13 12 12 11 10 12 13 14 13 13 13 12 11 11 11 10 9 11 12 12 9 8 7 7 8 8
7 7 8 8 8 8 8 7 6 6 6 7 8 8 8 8 8 8 8 9 9 10 10 11 12 12 12 11 10 10 10 11 12 12 13 14 15 16 16 16 16 16 15 13 12 10 10 11 13 14 15 14 12 11 11 11 10 10 11 12 13 12 11 9 8 7 6 6 7
7 7 8 8 9 9 8 7 6 6 7 7 7 7 7 7 8 8 9 10 10 9 9 10 11 11 11 11 10 10 10 11 12 13 13 14 14 15 16 16 16 16 15 13 11 10 11 12 14 15 15 14 11 10 11 11 11 12 13 14 13 11 9 9 8 7 6 6 7
7 8 8 8 9 8 8 7 6 6 7 8 7 7 7 7 7 8 9 10 9 9 9 9 9 9 9 11 10 11 11 12 13 13 14 14 14 15 16 16 16 15 13 11 11 11 12 13 14 14 14 13 12 11 11 12 12 13 14 14 12 10 9 8 8 8 7 8 9
8 8 8 8 8 8 8 7 6 6 7 8 7 7 7 7 7 7 8 9 9 9 8 8 7 7 9 10 11 11 12 12 13 14 14 14 15 15 16 16 16 15 13 11 11 11 13 14 14 14 13 13 13 12 12 13 13 14 14 13 11 10 9 9 9 9 9 10 9
8 8 8 8 8 8 7 7 6 6 7 7 7 7 7 7 6 7 8 9 8 8 8 9 8 8 8 9 10 11 11 12 13 14 14 14 15 15 16 16 16 15 14 13 12 12 12 13 13 13 13 13 13 13 13 13 13 13 12 11 10 9 10 10 10 10 9 9 8
8 8 8 8 8 8 8 7 6 6 7 8 8 8 7 7 6 7 7 8 8 8 9 10 9 8 8 8 8 9 9 10 11 12 13 14 15 15 15 15 15 15 14 14 13 12 12 12 12 12 13 13 13 13 13 12 11 11 10 10 10 10 10 9 8 7 6 5 5
8 8 8 8 8 8 8 8 7 7 8 9 8 8 8 7 7 7 7 8 9 10 11 10 9 9 9 9 8 7 7 8 9 10 12 13 14 14 14 14 14 14 13 13 13 13 13 13 13 13 13 13 13 13 13 11 10 10 10 10 10 9 8 7 5 3 2 1 1
8 8 8 8 8 8 8 8 8 8 9 9 9 9 8 9 9 8 8 8 9 10 11 11 10 10 10 10 9 7 6 7 9 10 11 12 12 12 12 12 12 12 12 13 13 13 13 14 14 14 14 13 13 12 11 10 9 10 10 10 9 8 6 4 1 2 3 4 4
8 8 8 8 8 8 8 8 8 9 9 9 9 9 9 9 9 9 9 9 10 10 11 12 11 11 11 11 10 8 6 6 9 10 11 11 11 11 12 12 12 12 12 13 13 14 14 14 14 14 14 12 12 10 9 9 9 9 9 9 8 6 3 1 4 6 7 8 8
8 8 8 8 8 8 8 8 9 9 9 9 9 10 10 10 10 10 10 10 10 11 11 12 12 12 12 11 10 9 7 6 8 10 10 10 10 11 12 12 12 12 13 13 14 14 14 14 13 13 12 11 10 9 9 9 9 10 10 8 5 2 4 6 8 9 10 10 10
8 8 8 8 8 8 9 9 9 9 9 9 9 10 10 10 10 10 10 10 10 10 11 11 12 12 12 11 10 9 8 7 8 9 9 8 9 11 12 13 14 14 14 14 14 14 14 14 13 12 11 10 10 10 10 10 11 11 10 7 4 7 9 10 10 11 11 11 11
8 8 8 8 8 8 8 9 9 9 9 9 10 10 10 10 10 10 10 10 10 10 11 10 11 11 11 11 10 10 9 9 9 8 8 8 9 11 13 13 14 14 14 14 14 14 14 14 13 12 12 11 11 11 12 13 13 11 8 6 9 11 11 11 12 12 12 12 12
8 8 7 7 8 9 9 9 9 9 9 10 10 10 10 11 11 11 11 11 11 11 11 9 9 10 10 10 10 10 10 10 9 9 9 9 11 12 13 13 13 13 13 11 11 12 12 11 11 11 11 11 11 12 12 11 8 6 6 9 11 12 12 12 12 13 13 13 13
9 8 8 8 9 9 9 9 10 10 10 10 10 10 11 11 11 11 11 11 11 11 11 10 10 10 9 9 9 9 10 10 10 10 10 11 12 12 12 12 12 11 10 9 11 12 12 10 9 9 10 10 9 8 5 4 5 7 9 12 12 12 12 13 13 13 13 13 13
9 9 9 9 9 9 10 10 10 10 10 10 10 10 11 11 11 11 12 12 12 11 11 10 10 9 8 8 9 9 9 8 9 10 12 13 13 13 13 11 10 9 9 10 12 13 12 10 9 9 8 7 5 5 6 7 9 11 12 13 12 12 12 13 13 13 13 13 13
9 9 9 9 10 10 10 9 10 10 10 10 11 11 11 11 11 11 12 12 12 11 11 10 9 8 7 8 9 9 9 9 10 12 13 14 15 15 14 12 11 9 7 7 9 9 9 8 8 7 6 7 8 8 9 10 12 13 13 13 12 12 13 13 13 13 13 12 12
9 9 10 10 10 10 9 9 10 10 11 11 11 11 11 11 11 12 12 12 12 11 10 9 8 7 7 7 9 10 10 11 12 13 14 15 15 15 15 11 8 6 6 6 8 9 10 10 11 12 12 11 11 11 11 12 12 12 12 12 12 12 13 12 12 12 12 12 12
10 10 10 10 10 10 9 9 10 10 11 11 11 11 11 11 12 12 12 12 12 11 9 8 8 7 7 8 9 10 11 12 13 13 13 14 14 11 8 8 7 7 8 10 11 13 14 15 16 16 16 14 11 10 10 11 11 11 11 10 11 11 11 11 10 10 11 11 11
10 10 10 11 10 10 9 9 9 10 10 10 11 11 11 11 12 12 12 12 12 10 9 9 8 9 9 9 9 9 10 11 11 12 12 12 10 9 10 10 9 8 8 10 14 16 18 19 19 20 19 18 15 13 11 11 11 11 11 10 11 11 12 11 11 11 10 10 11
10 10 10 11 11 10 10 9 9 10 10 10 11 11 11 11 12 12 12 12 10 9 8 9 10 11 11 11 10 10 10 10 10 10 9 11 12 12 12 13 12 10 10 14 18 20 21 22 22 22 22 20 16 14 13 13 13 12 11 11 12 12 12 11 11 11 11 11 12
11 10 10 10 11 11 10 10 9 10 10 11 11 11 11 11 11 11 11 10 9 8 8 8 10 11 12 12 12 11 10 9 7 7 10 13 14 14 14 15 12 11 12 17 21 23 24 24 25 25 24 23 19 17 16 15 15 14 14 14 14 14 13 11 11 12 12 12 12
11 11 10 10 11 11 11 10 10 10 10 11 11 11 11 11 11 10 10 8 8 6 5 4 5 6 6 6 6 5 5 5 7 11 13 15 16 16 15 13 11 11 13 18 21 24 25 26 27 27 27 25 21 18 17 16 15 14 14 15 15 15 15 14 13 13 13 13 12
11 11 11 10 11 11 11 11 10 10 10 10 10 9 9 9 9 8 7 5 5 4 4 4 5 6 6 6 7 8 9 10 11 13 14 15 17 16 15 12 10 11 14 18 22 24 26 28 29 29 28 25 20 18 17 17 16 15 15 15 15 15 15 15 14 14 13 13 12
11 11 11 10 11 11 11 11 11 10 10 9 8 7 6 6 7 7 7 6 6 7 7 7 8 9 10 11 12 13 13 13 14 15 15 16 17 17 16 14 12 13 16 19 22 24 26 28 29 29 27 23 18 17 18 19 18 17 17 17 16 16 16 15 14 14 13 13 13
11 11 11 10 10 11 11 12 11 11 10 9 8 8 9 9 8 7 7 8 9 9 9 9 11 12 14 14 14 13 14 15 15 15 15 16 18 18 18 16 14 15 17 19 21 23 25 27 28 27 25 20 17 16 16 17 16 17 17 17 17 17 16 15 14 13 13 12 12
10 10 10 10 10 11 11 12 12 11 10 8 9 11 11 10 9 8 8 9 12 13 13 13 14 14 14 13 13 13 13 14 15 15 15 15 17 18 17 16 14 14 16 19 20 22 23 24 25 24 22 18 16 15 15 15 15 15 16 17 17 16 15 14 14 13 13 13 13
10 10 10 10 10 10 11 12 12 11 10 10 12 12 11 11 9 9 9 10 13 15 15 14 14 14 14 14 14 15 15 15 15 15 15 15 16 17 17 16 14 13 14 17 19 20 21 22 22 21 20 17 17 16 15 14 14 14 15 15 15 14 14 12 12 13 14 16 17
10 10 10 10 10 10 10 11 11 11 12 13 13 13 12 12 10 10 10 11 14 15 15 15 15 15 15 15 16 17 17 17 17 16 16 16 16 16 16 16 14 14 14 17 19 20 20 21 21 21 19 17 16 15 14 14 15 15 14 14 13 13 13 12 11 12 14 18 21
10 10 10 10 10 10 10 11 11 12 13 14 14 14 13 13 12 12 12 13 14 15 16 16 17 16 15 15 16 17 18 17 16 16 16 16 16 17 17 16 15 15 15 17 19 20 21 21 21 20 18 15 14 14 13 14 15 15 14 13 12 12 12 11 11 11 13 16 19
10 10 10 10 10 10 10 12 13 14 14 15 14 13 13 13 13 13 13 14 15 15 15 15 16 16 15 15 16 17 18 18 17 16 16 16 16 16 16 15 15 15 15 17 19 20 20 21 20 19 17 14 13 13 12 13 14 15 15 13 12 11 11 11 11 11 11 12 14
Wind_Direction
205 208 211 212 210 208 208 211 213 219 224 221 211 201 193 184 182 182 183 185 186 185 185 185 187 188 187 180 179 178 175 171 168 169 171 173 171 167 161 154 153 152 153 154 158 161 165 168 169 170 168 162 155 150 149 149 155 169 193 215 213 203 192 188 186 181 183 204 216
203 202 200 197 197 201 206 213 217 223 227 229 221 208 196 184 179 177 179 185 185 182 178 178 181 184 185 182 182 182 181 178 174 174 176 179 176 171 167 162 160 157 155 154 157 161 166 169 170 171 169 163 156 153 153 155 158 179 207 218 208 195 186 189 184 182 188 209 217
205 202 198 194 195 197 202 207 209 211 215 221 217 206 195 186 177 175 178 184 182 176 172 175 179 181 180 178 182 185 186 185 183 184 186 186 179 175 172 169 167 165 162 159 158 161 166 170 169 168 167 164 159 156 155 155 164 190 213 215 202 189 185 188 179 182 194 216 218
206 204 201 197 196 197 198 199 199 199 200 202 198 195 191 185 177 174 176 179 175 171 169 170 171 172 173 172 177 182 188 191 192 192 191 187 178 175 174 173 174 173 172 170 168 168 170 173 169 167 165 163 161 159 157 156 171 195 213 210 195 185 182 180 176 189 206 220 219
202 204 203 200 197 195 195 193 190 190 190 187 180 178 180 177 171 168 171 175 175 171 166 161 161 162 164 164 167 173 183 193 194 192 187 183 176 173 172 175 178 179 179 179 177 175 174 175 169 164 163 162 163 161 158 156 174 194 208 203 191 182 175 169 185 202 214 220 219
196 200 203 203 199 197 194 190 184 180 177 170 167 167 168 166 162 161 164 170 169 163 156 150 149 151 153 155 155 158 167 182 188 186 181 178 174 169 168 172 177 180 180 179 174 170 168 172 166 160 158 158 161 158 155 155 174 192 200 193 184 173 167 178 201 212 218 219 219
191 194 198 200 198 197 193 187 181 176 171 165 163 161 161 159 154 152 152 154 154 152 149 144 143 145 147 149 147 146 150 160 169 171 169 167 166 164 163 165 170 174 175 172 165 162 163 168 163 156 152 152 154 153 154 159 179 191 193 185 174 164 174 200 212 217 217 217 217
188 189 188 183 181 183 183 182 178 174 170 166 162 159 156 152 147 142 138 137 142 144 143 139 140 142 144 146 144 143 144 148 154 158 159 160 160 159 157 155 157 161 164 164 161 160 160 165 163 156 151 149 147 149 155 167 185 192 189 176 164 172 194 214 217 216 214 215 215
180 179 173 163 162 162 164 168 170 169 165 161 157 154 150 147 143 139 136 136 139 140 138 135 137 139 142 145 145 146 147 148 149 151 153 155 156 155 152 148 147 149 153 158 158 158 158 161 160 157 151 147 145 147 156 172 184 186 181 166 170 190 209 221 218 215 212 213 213
167 164 158 151 149 146 144 145 148 150 149 148 146 144 142 140 141 142 141 141 141 141 141 140 139 140 141 144 147 149 150 149 148 147 148 150 152 151 148 145 144 145 148 153 155 155 155 155 155 153 149 144 144 148 157 169 175 173 169 165 187 205 216 223 218 213 210 211 211
155 152 149 144 142 138 133 129 125 124 126 128 130 131 132 135 141 143 143 142 144 147 148 146 145 144 144 145 147 149 151 151 148 147 147 148 148 146 144 141 141 142 144 148 150 151 151 150 149 148 146 142 145 151 158 165 165 165 168 180 201 213 219 221 215 210 206 206 206
144 142 141 139 138 134 129 125 121 118 118 120 123 126 131 136 140 141 142 144 147 149 150 149 149 148 146 145 146 147 149 149 147 146 146 147 146 143 140 138 138 139 141 144 146 146 146 144 144 144 143 142 147 153 159 162 164 170 181 197 210 217 219 216 210 206 202 199 200
135 134 134 134 133 130 127 124 123 123 123 125 127 129 133 136 138 139 142 145 147 148 148 149 149 148 147 146 145 147 148 149 148 147 147 147 145 142 139 137 137 138 140 141 142 142 141 140 140 141 142 144 148 154 160 165 172 183 195 207 215 218 216 209 205 202 199 196 200
131 130 130 131 130 129 127 126 126 127 129 130 131 132 132 133 137 140 143 145 145 145 144 145 146 147 147 147 147 147 148 148 147 147 147 147 145 143 141 140 140 141 141 140 139 138 137 136 137 139 142 146 151 157 163 171 182 193 204 213 216 215 210 205 203 201 201 201 205
132 131 131 130 130 129 128 129 129 131 133 133 133 133 133 133 137 140 142 143 142 141 140 139 139 142 144 147 147 147 147 147 147 146 145 145 144 144 144 144 144 143 142 140 138 137 136 135 138 141 146 151 156 162 168 177 189 199 207 213 212 210 206 204 203 203 203 204 208
136 135 134 133 132 130 130 132 133 134 135 135 135 134 134 135 136 138 139 140 139 137 135 134 134 135 138 142 144 144 144 145 146 145 145 144 144 145 146 146 145 144 143 141 141 140 140 139 141 146 151 156 161 167 174 182 191 198 204 207 206 206 206 207 205 205 205 207 211
142 141 139 137 135 134 134 135 136 137 137 137 136 136 135 135 135 135 136 137 136 135 133 131 130 130 131 133 137 139 141 143 144 143 143 143 143 144 145 145 144 143 144 144 145 145 145 145 147 150 154 159 166 174 181 185 189 193 198 202 205 208 211 213 213 212 213 216 226
146 145 143 141 139 137 136 137 137 137 137 137 137 136 137 136 135 134 134 135 135 135 132 129 128 128 129 130 131 133 135 138 137 137 137 137 138 139 139 140 140 142 144 146 148 149 150 151 153 155 158 163 173 181 187 189 190 194 199 203 206 211 218 226 232 236 241 250 272
149 148 146 144 140 138 137 137 137 137 137 137 136 137 138 138 137 135 134 134 134 133 132 129 128 128 128 128 127 125 124 127 127 127 127 128 130 131 133 135 137 140 145 148 151 153 155 157 158 160 162 167 177 184 189 189 193 198 202 203 207 214 225 240 277 25 46 51 47
150 150 149 145 142 139 138 138 138 137 136 135 136 137 138 139 138 136 135 134 133 132 131 130 129 128 127 126 122 119 116 117 120 121 121 122 125 128 131 134 138 143 149 153 156 158 160 161 160 159 160 165 175 181 185 188 195 200 203 205 208 213 216 59 55 55 56 55 52
150 150 149 146 143 141 140 139 138 137 135 134 135 136 137 137 136 135 134 132 131 130 130 130 129 128 127 124 120 117 113 111 116 118 119 121 127 132 136 139 144 150 155 159 160 161 159 156 153 152 154 161 170 177 183 190 197 202 205 207 199 150 72 63 61 59 58 56 55
149 148 147 145 143 141 140 139 138 137 135 134 134 134 135 135 134 132 130 129 128 127 127 127 127 127 126 124 120 117 114 112 114 116 120 126 136 140 143 145 151 156 159 161 159 156 152 148 147 149 155 164 173 182 189 195 201 205 205 193 120 75 64 62 63 62 61 59 58
147 145 143 142 141 140 139 139 139 138 136 134 133 133 133 132 131 129 128 128 127 126 124 123 122 122 123 122 120 119 117 116 116 119 127 138 146 148 148 150 155 158 160 158 154 151 148 147 151 156 163 172 181 190 196 201 204 203 190 133 90 75 68 66 66 65 64 63 61
143 142 142 140 141 140 140 140 140 140 138 136 135 134 132 131 130 129 129 129 128 127 124 120 118 118 118 119 120 121 122 122 124 131 140 150 153 152 151 151 156 158 158 155 152 150 149 150 157 165 173 182 191 197 201 203 199 178 133 100 90 83 77 72 70 69 69 68 67
142 141 140 141 141 141 141 141 141 142 141 139 137 135 133 132 131 132 132 132 130 128 124 119 116 116 117 118 121 124 127 131 136 145 152 157 155 153 151 151 154 157 157 154 152 152 153 157 167 176 185 193 193 187 169 132 107 99 96 95 95 92 86 79 76 74 73 73 73
142 141 141 142 142 141 141 140 141 141 141 140 139 137 135 134 134 135 135 135 133 129 124 119 118 118 119 123 127 130 134 140 150 157 161 160 156 154 152 151 155 159 162 159 156 157 160 167 176 183 185 179 154 121 93 77 76 82 88 93 95 94 92 88 84 81 79 77 78
145 144 144 144 143 142 140 139 139 140 141 142 142 140 139 137 137 137 138 137 135 131 126 123 124 124 126 132 136 139 145 153 165 168 166 161 157 155 155 158 161 161 153 141 140 144 150 154 152 144 131 115 102 95 90 85 81 82 84 87 88 90 91 93 92 90 88 85 83
149 148 147 146 146 144 141 138 138 140 142 145 145 144 142 140 140 140 140 139 137 134 131 131 133 134 136 140 145 149 155 165 172 171 167 160 158 160 161 159 144 111 79 77 97 107 112 112 107 104 102 101 97 93 90 87 84 82 82 83 85 87 90 93 94 94 93 91 87
152 151 151 151 150 147 144 141 140 141 143 145 146 146 145 144 144 143 142 141 140 139 139 142 144 145 146 148 152 157 164 172 174 170 163 159 160 152 128 92 64 47 51 75 95 100 99 97 97 97 97 97 95 91 87 85 84 83 82 82 84 87 89 91 93 94 94 94 91
154 154 155 156 154 152 148 145 142 140 141 143 146 148 148 147 147 146 145 144 144 146 149 153 152 151 151 151 154 160 167 174 172 166 158 152 128 93 64 43 42 45 60 86 97 98 96 95 94 93 92 93 92 91 88 86 85 83 82 82 83 84 86 87 89 91 93 94 91
156 156 157 158 157 155 152 147 142 140 140 143 147 150 151 152 150 148 147 146 148 151 156 159 156 154 153 153 157 163 170 175 172 162 142 113 86 71 61 55 51 55 74 92 98 98 97 95 94 92 91 91 91 90 89 87 84 82 81 80 80 80 80 81 81 82 85 87 88
157 157 158 159 159 157 154 149 144 142 142 144 148 152 154 153 151 149 148 148 152 158 164 166 161 158 156 157 160 164 168 169 160 130 101 86 81 74 68 62 59 66 81 94 99 99 98 96 93 91 90 88 88 88 88 86 84 82 80 78 77 76 76 76 76 76 76 79 82
156 157 157 158 158 157 154 150 146 144 144 146 149 152 155 155 153 151 149 148 152 156 157 151 142 138 137 137 134 126 113 96 88 85 85 87 84 81 76 72 69 73 83 94 98 99 98 96 94 92 90 89 88 87 87 87 85 82 80 77 75 74 74 74 74 74 73 74 76
156 156 157 157 157 156 154 151 148 145 145 146 149 152 154 153 147 140 130 121 115 103 87 73 72 71 70 69 69 65 61 59 65 74 82 87 86 85 83 79 76 79 85 93 97 98 98 97 96 94 92 89 88 88 88 87 86 84 82 80 78 75 74 73 73 73 73 74 76
155 156 156 157 156 155 153 150 148 146 145 146 145 135 120 111 108 102 96 91 86 80 74 69 69 67 65 63 67 70 73 74 76 79 83 87 88 87 85 82 81 83 87 92 95 97 98 99 98 97 95 92 91 90 89 88 87 86 85 83 80 77 75 73 72 72 73 74 76
154 154 154 154 154 154 152 149 148 147 145 142 121 96 81 77 81 86 91 93 88 83 76 71 69 69 70 70 72 75 79 82 84 85 87 90 91 90 88 87 85 85 87 91 94 97 99 100 100 100 98 96 95 94 93 91 90 88 87 84 82 79 77 75 73 72 72 73 74
153 152 151 151 151 151 150 149 148 146 141 124 98 88 85 84 82 83 86 90 87 83 78 74 73 74 75 76 76 76 78 81 84 85 86 88 91 92 92 91 87 86 87 91 94 96 98 100 102 102 101 101 100 99 98 96 95 92 89 86 84 82 80 78 75 74 73 73 74
153 151 150 148 148 149 148 147 146 140 125 100 92 90 90 87 83 80 81 86 89 88 85 82 80 79 78 77 76 73 72 72 77 80 82 83 88 92 94 93 89 87 88 92 94 97 98 100 102 103 104 105 105 105 103 101 99 96 93 91 88 85 83 81 79 77 77 77 77
154 152 150 148 147 146 145 144 137 121 103 92 92 92 90 86 84 82 81 84 88 90 89 85 82 80 80 80 80 78 75 73 75 78 81 83 87 91 94 94 91 90 90 92 95 97 99 100 101 102 103 105 106 106 105 104 102 100 98 95 93 89 86 84 82 81 80 80 80
154 152 150 148 146 145 142 135 118 103 95 94 94 93 91 90 90 88 85 84 85 86 86 85 85 85 85 85 84 83 81 78 78 79 82 85 87 89 90 92 92 92 92 93 96 97 99 100 101 102 102 103 105 106 107 107 105 103 101 100 98 95 91 87 85 84 83 82 81
154 152 150 148 146 140 130 113 99 93 91 93 93 94 94 94 93 92 90 88 87 86 86 87 89 89 89 87 85 85 84 82 80 80 82 84 85 86 88 90 92 92 93 94 95 97 99 100 100 101 101 102 105 106 107 108 106 105 104 103 102 100 97 93 89 87 85 84 83